Regional Weather Roundup
Issued by NWS

Home | Current Version | Previous Version | Text Only | Print | Product List | Glossary Off
Versions: 1 2 3 4 5 6 7 8 9 10 11 12 13 14 15 16 17 18 19 20 21 22 23 24 25 26 27 28 29 30 31 32 33 34 35 36 37 38 39 40 41 42 43 44 45 46 47 48 49 50

000
ASUS43 KMPX 251410
RWRMN
WEATHER ROUNDUP FOR MINNESOTA
NATIONAL WEATHER SERVICE TWIN CITIES/CHANHASSEN MN
800 AM CST SAT FEB 25 2017


NOTE: "FAIR" INDICATES FEW OR NO CLOUDS BELOW 12,000 FEET WITH NO
SIGNIFICANT WEATHER AND/OR OBSTRUCTIONS TO VISIBILITY. N/A MEANS
CURRENT SKY AND/OR WEATHER CONDITIONS ARE NOT AVAILABLE.

MNZ060>063-068>070-251500-
   Twin Cities Metro

CITY           SKY/WX    TMP DP  RH WIND       PRES   REMARKS
TWIN CITIES    CLEAR     16   3  56 NW18      29.95R WCI   0
ST PAUL        CLEAR     16   4  59 NW18      29.95R WCI   0
CRYSTAL        CLEAR     15   2  56 NW13G22   29.94R WCI   1
BLAINE         CLEAR     16   5  62 NW12      29.93R WCI   3
LAKEVILLE      CLEAR     14   5  67 NW14G20   29.94R WCI  -1
EDEN PRAIRIE   CLEAR     16   3  56 NW18G24   29.94R WCI   0
SOUTH ST PAUL  CLEAR     17   4  57 NW12      29.94R WCI   4
LAKE ELMO      FAIR      18   5  57 NW12      29.93R WCI   5
$$
MNZ001>005-007-008-013>017-022>024-027-028-251500-
   Northwest Minnesota

CITY           SKY/WX    TMP DP  RH WIND       PRES   REMARKS
BEMIDJI        MOCLDY     7   3  86 W5        29.89F WCI  -2
HALLOCK        LGT SNOW  18  16  93 S10       29.86F WCI   6
ROSEAU         LGT SNOW  12   7  79 S5        29.87F WCI   4
WARROAD        PTCLDY     9   3  78 S3        29.87F
THIEF RVR FALL FLURRIES  15  12  88 S9        29.89F WCI   3
CROOKSTON      CLOUDY    19  16  86 SW10      29.92S WCI   8
FOSSTON        CLOUDY    12   9  85 S6        29.90F WCI   3
DETROIT LAKES  PTCLDY    18  12  79 SW3       29.93S
MOORHEAD       CLOUDY    19  12  73 S10       29.95F WCI   8
PARK RAPIDS    CLOUDY    10   3  73 W7        29.90S WCI  -1
MAHNOMEN       CLOUDY    16  12  86 SW10      29.91F WCI   3
$$
MNZ006-009>011-018-025>026-251500-
   North Central Minnesota

CITY           SKY/WX    TMP DP  RH WIND       PRES   REMARKS
BAUDETTE       PTCLDY     5  -1  76 CALM      29.86F
FLAG ISLAND    CLOUDY     3   0  85 CALM      29.86F
INTL FALLS     CLEAR      3  -3  76 W6        29.86S WCI  -8
WASKISH        MOCLDY     9   5  85 SW6       29.89S WCI  -1
BIG FORK       CLEAR      5   0  78 NW3       29.87S
LONGVILLE      CLEAR      7   1  78 NW6       29.90S WCI  -3
GRAND RAPIDS   CLEAR      7   1  76 NW13      29.89S WCI  -9
CRANE LAKE     CLEAR      3   0  85 CALM      29.86S
ORR            CLEAR      1  -4  78 NW6       29.81S WCI -10
COOK           CLEAR      3   0  85 W6        29.84S WCI  -8
WALKER         FAIR       6   2  82 NW5       29.90S WCI  -3
$$
MNZ012-019>021-037-251500-
   Northeast Minnesota

CITY           SKY/WX    TMP DP  RH WIND       PRES   REMARKS
DULUTH         PTCLDY     6   2  83 NW17      29.81R WCI -13
ELY            CLOUDY     7   1  78 NW9       29.80R WCI  -7
HIBBING        CLEAR      4  -1  80 NW12      29.84R WCI -12
EVELETH        FLURRIES   6   0  74 NW9       29.83S WCI  -7
DULUTH HARBOR  PTCLDY    10   3  72 CALM      29.90R
TWO HARBORS    CLEAR     10   3  72 NW10G21   29.77S WCI  -3
SILVER BAY     SUNNY     10   3  72 NW9G22    29.74R WCI  -2
GRAND MARAIS     N/A     14   4  64 NW26G46   29.67R WCI  -6
G MARAIS ARPRT LGT SNOW   7   0  72 NW12G25   29.67S WCI  -9
$$
MNZ029>031-032-039>041-046>048-054>057-064-251500-
   West Central Minnesota

CITY           SKY/WX    TMP DP  RH WIND       PRES   REMARKS
FERGUS FALLS   CLOUDY    16  14  93 CALM      30.01F
WHEATON        MOCLDY    16  12  86 SW5       30.00F WCI   9
MORRIS         CLEAR     16  12  86 W3        29.97F
ALEXANDRIA     MOCLDY    14   8  77 W8        29.95S WCI   3
ELBOW LAKE     MOCLDY    15  14  93 SW5       29.98R WCI   8
WADENA         CLOUDY    10   7  85 W7        29.93R WCI   0
GLENWOOD       CLEAR     14   9  79 W6        29.96S WCI   5
APPLETON       CLEAR     18  12  79 W6        30.00S WCI   9
BENSON         CLEAR     18  10  73 NW5       30.00S WCI  11
ORTONVILLE     CLOUDY    18  12  79 CALM      29.99S
MADISON        CLEAR     19  16  86 W6        30.01F WCI  11
WILLMAR        FAIR      18  14  86 NW9       29.99S WCI   6
$$
MNZ033>034-036-042>043-049>051-058-059-251500-
   Central Minnesota

CITY           SKY/WX    TMP DP  RH WIND       PRES   REMARKS
ST CLOUD       CLEAR     14   5  67 NW12      29.95R WCI   0
SAUK CENTRE    FAIR      14   6  69 NW7       29.95F WCI   4
PAYNESVILLE    CLEAR     15   8  73 NW8       29.96F WCI   5
AITKIN         CLEAR     12   1  62 NW6       29.89S WCI   3
PINE RIVER     CLEAR      9   3  78 CALM      29.94F
BRAINERD       CLEAR     10   2  69 NW8       29.92S WCI  -2
STAPLES        PTCLDY    10   5  79 W5        29.93S WCI   2
LONG PRAIRIE   FAIR      14   5  67 W5        29.94F WCI   6
LITTLE FALLS   CLEAR     14   3  62 NW7       29.95S WCI   4
LITCHFIELD     CLEAR     16   9  73 NW8       29.97S WCI   5
BUFFALO        CLEAR     15   4  61 NW10      29.97R WCI   3
MAPLE LAKE     CLEAR     16   7  68 NW12      29.97R WCI   3
HUTCHINSON     CLEAR     17  10  73 W13       29.98R WCI   3
$$
MNZ037-044-045-052-053-251500-
   East Central Minnesota

CITY           SKY/WX    TMP DP  RH WIND       PRES   REMARKS
PRINCETON      CLEAR     16   3  57 NW10      29.93S WCI   3
MORA           CLEAR     12   3  67 NW12      29.93R WCI  -2
CAMBRIDGE      CLEAR     16   3  57 NW12      29.91S WCI   3
RUSH CITY      CLEAR     12   3  67 NW12      29.92R WCI  -2
MOOSE LAKE     CLEAR     10   3  72 NW6       29.88R WCI   1
HINCKLEY       FAIR      12   5  73 NW10      29.91R WCI  -1
CLOQUET        CLEAR      7   1  78 NW10      29.84R WCI  -8
MCGREGOR       CLEAR     10   3  72 NW8       29.90R WCI  -1
$$
MNZ071>073-080-081-089-090-097-098-251500-
   Southwest Minnesota

CITY           SKY/WX    TMP DP  RH WIND       PRES   REMARKS
MONTEVIDEO     CLEAR     19  16  86 CALM      30.02F
GRANITE FALLS  CLEAR     19  15  83 W7        30.03S WCI  10
CANBY          PTCLDY    19  15  82 CALM      30.02S
MARSHALL       CLEAR     18  13  80 W7        30.01F WCI   9
REDWOOD FALLS  CLEAR     18  11  74 NW12      30.01R WCI   5
OLIVIA         CLEAR     19  14  79 NW13      29.99S WCI   7
PIPESTONE      CLEAR     16  10  79 W6        29.99S WCI   7
WINDOM         CLEAR     16  10  79 W8        30.00R WCI   5
WORTHINGTON    CLEAR     13   8  81 W9        30.01S WCI   1
JACKSON        CLEAR     14   9  79 NW12      30.01R WCI   0
TRACY          CLEAR     18  12  79 W3        30.01S
SLAYTON        CLEAR     14  11  86 W5        30.00S WCI   7
$$
MNZ065>067-074>077-082>085-091>093-251500-
   South Central Minnesota

CITY           SKY/WX    TMP DP  RH WIND       PRES   REMARKS
MANKATO          N/A     16   8  71 NW15      29.98R WCI   1
NEW ULM        CLEAR     18   9  68 NW18      30.00R WCI   2
ST JAMES       CLEAR     16  10  79 W10       30.01R WCI   3
FAIRMONT       CLEAR     15   9  76 NW17      30.01R WCI  -1
GLENCOE        CLEAR     18  11  74 W14       29.97R WCI   4
FARIBAULT      CLEAR     14   5  67 W10       29.95R WCI   1
OWATONNA       SUNNY     12   3  67 W10       29.94R WCI  -1
WASECA         CLEAR     14   9  79 NW14      29.97R WCI  -1
ALBERT LEA     SUNNY     12   7  79 NW9G16    29.94R WCI   0
$$
MNZ078>079-086>088-094>096-251500-
   Southeast Minnesota

CITY           SKY/WX    TMP DP  RH WIND       PRES   REMARKS
ROCHESTER      SUNNY      9   3  77 NW15      29.89R WCI  -8
RED WING       SUNNY     16   1  53 NW9       29.91R WCI   4
STANTON        SUNNY     15   4  62 NW12      29.93R WCI   2
WINONA           N/A     18   9  68 NW10G17   29.91R WCI   6
AUSTIN         SUNNY     12   7  79 NW14      29.92R WCI  -3
PRESTON        SUNNY     11   4  73 NW16      29.88R WCI  -6
$$
ABBREVIATIONS USED IN REMARKS
   TC - TEMPERATURES IN CELSIUS
  WCI - WIND CHILL INDEX
   HX - HEAT INDEX
  VSB - VISIBILITY
$$



USA.gov is the U.S. government's official web portal to all federal, state and local government web resources and services.